* Astronomy

Members Login
Post Info TOPIC: Asteroid 2011 HO60


L

Posts: 131433
Date:
Asteroid 2011 HO60
Permalink  
 


Orbital elements:
2011 HO60
Epoch 2013 Apr. 18.0 TT = JDT 2456400.5                 MPC
M 359.29830              (2000.0)            P               Q
n   0.00109777     Peri.  241.93118     -0.56371915     +0.82475730
a  93.0670672      Node   353.21654     -0.56042213     -0.42166153
e   0.6063661      Incl.   22.22528     -0.60675181     -0.37679828
P 898              H    6.1           G   0.15           U   5

MPEC 2013 - L22

Key to Orbital elements

Ed ~ 170 - 380 km wide



__________________
Page 1 of 1  sorted by
Quick Reply

Please log in to post quick replies.



Create your own FREE Forum
Report Abuse
Powered by ActiveBoard